Location: Seven Kings
(51.5667°N, 0.1000°E)
Time: 02:51:50
(UTC+00:00)

Cosmos 2369 Rocket - Pass Details

Date: 29 October 2020
Orbit: 827 x 854 km, 71.0° (Epoch: 27 November)

Event Time Altitude Azimuth Distance (km) Brightness Sun altitude
Rises 17:29:43 0° 254° (WSW) 3,405 7.7 -8.7°
Reaches altitude 10° 17:32:37 10° 267° (W) 2,477 6.3 -9.1°
Maximum altitude 17:37:14 25° 322° (NW) 1,668 4.1 -9.8°
Drops below altitude 10° 17:41:54 10° 16° (NNE) 2,495 4.4 -10.5°
Sets 17:44:50 0° 30° (NNE) 3,436 5.0 -11.0°
